Home   Weather   USA   Racine   Past weeks
Flag for USA

Past Weather in Racine, Wisconsin, USA — Yesterday and Last 2 Weeks

Currently: 36 °F. Fog. (Weather station: Batten International Airport, USA). See more current weather

Past Weather in Racine — Graph

°F

Racine Temperature Yesterday

Maximum temperature yesterday: 39 °F (at 4:25 am)
Minimum temperature yesterday: 34 °F (at 9:06 am)
Average temperature yesterday: 36 °F

High & Low Weather Summary for the Past Weeks

 TemperatureHumidityPressure
High58 °F (Nov 29, 4:31 pm)100% (Dec 7, 8:40 am)30.49 "Hg (Dec 7, 8:40 am)
Low18 °F (Dec 1, 1:53 am)34% (Nov 26, 12:53 pm)29.41 "Hg (Nov 29, 7:53 pm)
Average37 °F68%30.06 "Hg
* Reported Nov 24 10:07 pm — Dec 9 10:53 pm, Racine. Weather by CustomWeather, © 2022

Note: Actual official high and low records may vary slightly from our data, if they occured in-between our weather recording intervals... More about our weather records

Racine Weather History for the Previous 24 Hours

Scroll right to see more
 ConditionsComfort  
Time TempWeatherWind HumidityBarometerVisibility
10:53 pm
Fri, Dec 9
36 °FOvercast.13 mph85%30.29 "Hg8 mi
9:53 pm36 °FOvercast.12 mph85%30.29 "Hg8 mi
9:25 pm36 °FFog.15 mph85%30.27 "Hg5 mi
9:11 pm36 °FFog.15 mph85%30.27 "Hg5 mi
8:53 pm36 °FFog.15 mph85%30.29 "Hg6 mi
7:53 pm36 °FOvercast.16 mph85%30.28 "Hg10 mi
7:22 pm36 °FOvercast.14 mph85%30.26 "Hg10 mi
6:53 pm36 °FLow clouds.17 mph85%30.27 "Hg10 mi
5:09 pm36 °FLow clouds.15 mph85%30.24 "Hg10 mi
4:53 pm36 °FOvercast.16 mph89%30.26 "Hg10 mi
3:53 pm35 °FLow clouds.16 mph92%30.24 "Hg8 mi
3:16 pm35 °FFog.14 mph92%30.21 "Hg4 mi
2:53 pm35 °FLight snow. Fog.16 mph88%30.23 "Hg2 mi
1:53 pm35 °FLight snow. Fog.16 mph88%30.22 "Hg1 mi
12:53 pm35 °FLight snow. Fog.18 mph88%30.22 "Hg3 mi
12:18 pm34 °FLight snow. Fog.17 mph92%30.20 "Hg2 mi
11:53 am34 °FLight snow. Fog.18 mph92%30.24 "Hg1 mi
11:20 am34 °FSnow. Fog.17 mph92%30.23 "Hg0 mi
11:03 am34 °FSnow. Fog.21 mph92%30.23 "Hg1 mi
9:53 am34 °FHeavy snow. Fog.15 mph92%30.28 "Hg0 mi
9:35 am34 °FSnow. Fog.14 mph88%30.26 "Hg1 mi
9:06 am34 °FSnow. Fog.21 mph88%30.24 "Hg1 mi
7:53 am37 °FOvercast.20 mph76%30.26 "Hg10 mi
6:53 am38 °FOvercast.16 mph76%30.26 "Hg10 mi
5:53 am38 °FOvercast.15 mph79%30.26 "Hg10 mi
4:53 am39 °FOvercast.18 mph76%30.25 "Hg9 mi
4:25 am39 °FMostly cloudy.15 mph76%30.26 "Hg8 mi
3:53 am38 °FMostly cloudy.16 mph83%30.28 "Hg9 mi
3:13 am38 °FOvercast.14 mph76%30.28 "Hg10 mi
2:53 am37 °FOvercast.14 mph79%30.29 "Hg10 mi
1:53 am37 °FOvercast.15 mph73%30.32 "Hg10 mi
12:53 am38 °FOvercast.13 mph70%30.32 "Hg10 mi
Weather by CustomWeather, © 2022

See weather overview